M I D A S
Marine Information and Data Acquisition System
Tripno 428 of the Zeeleeuw from 2003-02-11 07:32:15 to 2003-02-11 15:22:51
Back to CruiseResearch ActivitiesStationsMapUnderway DataData graphs

EquipmentUnitsComments
TimeDGPSUTC
LatitudeDGPSDM.mWGS84
LongitudeDGPSDM.mWGS84
SpeedMeteo Stationm/sRelative wind speed
DirectionMeteo StationdegRelative wind direction
TemperatureMeteo Stationdeg CelciusAir temperature
PressureMeteo StationPaAtmospheric pressure
HumidityMeteo Station%Relative humidity
Missing or incorrect values are displayed as -999
Metereological data collected by the RV Zeeleeuw from 2003-02-11 07:32:15 to 2003-02-11 15:22:51
Time Latitude Longitude Speed Direction Temperature Pressure Humidity
2003-02-11 07:33 51°13.631 2°55.988 2.2 174 -0.2 102510 92
2003-02-11 07:34 51°13.67 2°55.864 1.7 160 -0.2 102510 92
2003-02-11 07:35 51°13.702 2°55.748 2.1 161 -0.1 102510 92
2003-02-11 07:36 51°13.715 2°55.735 2.6 126 -0.1 102500 92
2003-02-11 07:37 51°13.709 2°55.719 2.9 79 -0.1 102500 92
2003-02-11 07:38 51°13.727 2°55.706 2.3 68 -0.1 102510 92
2003-02-11 07:39 51°13.782 2°55.666 2.2 22   102510 92
2003-02-11 07:40 51°13.872 2°55.602 0.3 142   102510 92
2003-02-11 07:41 51°13.978 2°55.526 0.3 134   102520 92
2003-02-11 07:42 51°14.092 2°55.439 0.1 100   102520 92
2003-02-11 07:43 51°14.21 2°55.338 0.6 73   102510 92
2003-02-11 07:44 51°14.313 2°55.177 2.4 304 0.1 102520 92
2003-02-11 07:45 51°14.431 2°54.993 0.1 1 0.1 102510 91
2003-02-11 07:46 51°14.602 2°54.815 1.5 280 0.1 102520 91
2003-02-11 07:47 51°14.784 2°54.633 0.7 253 0.1 102510 91
2003-02-11 07:48 51°14.965 2°54.449 1.1 250 0.1 102510 91
2003-02-11 07:49 51°15.152 2°54.262 0.7 251 0.1 102510 91
2003-02-11 07:50 51°15.343 2°54.071 2.1 283 0.2 102520 91
2003-02-11 07:51 51°15.525 2°53.88 2.6 258 0.3 102510 92
2003-02-11 07:52 51°15.717 2°53.668 1.2 275 0.4 102510 92
2003-02-11 07:53 51°15.902 2°53.461 1.7 272 0.3 102510 91
2003-02-11 07:54 51°16.095 2°53.242 1.8 302 0.4 102510 91
2003-02-11 07:55 51°16.292 2°53.04 0.6 284 0.4 102510 91
2003-02-11 07:56 51°16.49 2°52.848 0.6 311 0.4 102510 91
2003-02-11 07:57 51°16.69 2°52.654 0.4 348 0.5 102510 91
2003-02-11 07:58 51°16.897 2°52.467 0.4 221 0.6 102510 91
2003-02-11 07:59 51°17.129 2°52.346 1.8 116 0.6 102510 91
2003-02-11 08:00 51°17.363 2°52.267 3.5 142 0.7 102510 91
2003-02-11 08:01 51°17.606 2°52.256 3.9 166 0.7 102510 91
2003-02-11 08:02 51°17.875 2°52.289 6.6 160 0.8 102500 91
2003-02-11 08:03 51°18.108 2°52.428 7.1 158 0.8 102500 91
2003-02-11 08:04 51°18.331 2°52.601 8.9 164 0.8 102500 91
2003-02-11 08:05 51°18.528 2°52.835 10 167 0.8 102500 91
2003-02-11 08:06 51°18.729 2°53.088 10.1 167 0.8 102500 91
2003-02-11 08:07 51°18.945 2°53.366 9 172 0.9 102490 91
2003-02-11 08:08 51°19.128 2°53.61 10.8 168 0.9 102490 91
2003-02-11 08:09 51°19.33 2°53.878 8.3 176 0.9 102500 91
2003-02-11 08:10 51°19.525 2°54.131 8.4 177 0.8 102500 91
2003-02-11 08:11 51°19.713 2°54.375 10.6 173 0.8 102500 91
2003-02-11 08:12 51°19.914 2°54.634 8.2 176 0.8 102500 91
2003-02-11 08:13 51°20.1 2°54.872 9.5 173 0.7 102510 91
2003-02-11 08:14 51°20.302 2°55.134 8.9 178 0.8 102510 91
2003-02-11 08:15 51°20.494 2°55.403 9.5 174 0.7 102500 91
2003-02-11 08:16 51°20.676 2°55.659 9.4 176 0.7 102500 91
2003-02-11 08:17 51°20.865 2°55.921 8.9 178 0.7 102500 91
2003-02-11 08:18 51°21.056 2°56.19 9.3 179 0.7 102520 91
2003-02-11 08:19 51°21.236 2°56.442 9 170 0.8 102510 91
2003-02-11 08:20 51°21.433 2°56.72 9.5 171 0.7 102520 91
2003-02-11 08:21 51°21.616 2°56.977 8.8 176 0.8 102510 91
2003-02-11 08:22 51°21.813 2°57.255 9.8 178 0.7 102520 91
2003-02-11 08:23 51°21.99 2°57.53 9.4 178 0.8 102520 91
2003-02-11 08:24 51°22.163 2°57.815 8.9 179 0.8 102520 91
2003-02-11 08:25 51°22.339 2°58.108 7.6 184 0.8 102520 91
2003-02-11 08:26 51°22.517 2°58.404 9.2 176 0.7 102520 91
2003-02-11 08:27 51°22.687 2°58.704 9.2 178 0.7 102520 91
2003-02-11 08:28 51°22.869 2°59.04 9.6 177 0.7 102510 91
2003-02-11 08:29 51°23.028 2°59.337 9 175 0.7 102510 91
2003-02-11 08:30 51°23.192 2°59.642 9.3 169 0.7 102520 91
2003-02-11 08:31 51°23.344 2°59.856 7.6 169 0.7 102530 91
2003-02-11 08:32 51°23.355 3°0.044 10.4 227 0.8 102530 91
2003-02-11 08:33 51°23.311 3°0.072 9.3 279 0.7 102540 91
2003-02-11 08:34 51°23.284 3°0.028 9.1 281 0.8 102550 91
2003-02-11 08:35 51°23.264 3°0.003 8.9 280 0.9 102550 91
2003-02-11 08:36 51°23.252 2°59.989 7.8 294 0.9 102550 91
2003-02-11 08:37 51°23.249 2°59.967 7.5 301 0.9 102550 91
2003-02-11 08:38 51°23.253 2°59.941 3.6 317 1 102550 91
2003-02-11 08:39 51°23.261 2°59.912 6.4 298 1 102550 91
2003-02-11 08:40 51°23.266 2°59.892 8.8 298 0.9 102550 91
2003-02-11 08:41 51°23.269 2°59.882 9.1 292 1 102550 91
2003-02-11 08:42 51°23.27 2°59.88 8 282 1 102550 91
2003-02-11 08:43 51°23.271 2°59.886 8.3 267 1 102540 91
2003-02-11 08:44 51°23.273 2°59.899 8.2 264 1 102530 91
2003-02-11 08:45 51°23.275 2°59.919 7.6 250 1 102540 90
2003-02-11 08:46 51°23.281 2°59.948 8.3 237 1 102540 91
2003-02-11 08:47 51°23.291 2°59.984 7.5 217 1 102540 90
2003-02-11 08:48 51°23.303 3°0.026 8.3 230 1.1 102540 91
2003-02-11 08:49 51°23.31 3°0.06 7.9 250 1 102540 90
2003-02-11 08:50 51°23.315 3°0.081 9.2 284 1.1 102540 91
2003-02-11 08:51 51°23.318 3°0.088 9 286 1.1 102550 90
2003-02-11 08:52 51°23.318 3°0.089 8.4 280 1 102550 90
2003-02-11 08:53 51°23.315 3°0.089 8 284 1.1 102550 90
2003-02-11 08:54 51°23.309 3°0.093 8.8 268 1.2 102540 91
2003-02-11 08:55 51°23.302 3°0.097 9.4 279 1.2 102550 90
2003-02-11 08:56 51°23.294 3°0.091 9.1 296 1.2 102550 90
2003-02-11 08:57 51°23.291 3°0.072 8.6 300 1.2 102560 90
2003-02-11 08:58 51°23.286 3°0.054 9 296 1.2 102550 90
2003-02-11 08:59 51°23.28 3°0.039 9.1 297 1.2 102550 90
2003-02-11 09:00 51°23.273 3°0.027 8.9 294 1.2 102560 90
2003-02-11 09:01 51°23.268 3°0.015 8.9 293 1.2 102550 90
2003-02-11 09:02 51°23.261 3°0 9.2 300 1.2 102560 90
2003-02-11 09:03 51°23.255 2°59.982 8.1 302 1.3 102560 90
2003-02-11 09:04 51°23.249 2°59.966 8.9 291 1.3 102560 89
2003-02-11 09:05 51°23.242 2°59.955 9.7 298 1.3 102540 89
2003-02-11 09:06 51°23.236 2°59.941 9.4 298 1.3 102540 89
2003-02-11 09:07 51°23.231 2°59.923 7.9 302 1.4 102550 90
2003-02-11 09:08 51°23.232 2°59.895 1.5 322 1.4 102550 89
2003-02-11 09:09 51°23.24 2°59.86 2.8 337 1.3 102560 89
2003-02-11 09:10 51°23.256 2°59.823 6.7 354 1.4 102560 89
2003-02-11 09:11 51°23.277 2°59.786 6.7 359 1.3 102560 89
2003-02-11 09:12 51°23.302 2°59.749 6.6 13 1.3 102560 89
2003-02-11 09:13 51°23.333 2°59.715 6.1 31 1.3 102560 89
2003-02-11 09:14 51°23.374 2°59.688 5.9 48 1.3 102570 89
2003-02-11 09:15 51°23.422 2°59.678 6.6 85 1.4 102580 89
2003-02-11 09:16 51°23.474 2°59.692 6 114 1.3 102580 89
2003-02-11 09:17 51°23.522 2°59.724 6.6 139 1.4 102580 89
2003-02-11 09:18 51°23.562 2°59.768 7.5 157 1.4 102580 89
2003-02-11 09:19 51°23.597 2°59.841 9.7 206 1.3 102560 89
2003-02-11 09:20 51°23.536 2°59.958 12.7 251 1.3 102540 89
2003-02-11 09:21 51°23.435 3°0.076 13.4 241 1.3 102540 89
2003-02-11 09:22 51°23.332 3°0.143 10.8 280 1.3 102530 89
2003-02-11 09:23 51°23.288 3°0.098 9.9 300 1.3 102570 89
2003-02-11 09:24 51°23.278 3°0.076 9.3 296 1.3 102580 89
2003-02-11 09:25 51°23.274 3°0.063 8.2 295 1.4 102570 89
2003-02-11 09:26 51°23.268 3°0.049 8.3 294 1.4 102580 89
2003-02-11 09:27 51°23.262 3°0.037 9.9 300 1.4 102580 89
2003-02-11 09:28 51°23.254 3°0.023 8.7 295 1.5 102590 89
2003-02-11 09:29 51°23.248 3°0.007 7.7 295 1.5 102580 89
2003-02-11 09:30 51°23.241 2°59.991 8.1 295 1.6 102580 89
2003-02-11 09:31 51°23.235 2°59.972 8.8 300 1.6 102580 89
2003-02-11 09:32 51°23.225 2°59.945 7.5 300 1.5 102580 89
2003-02-11 09:33 51°23.234 2°59.822 4.5 27 1.5 102590 89
2003-02-11 09:34 51°23.342 2°59.797 7.9 156 1.4 102580 89
2003-02-11 09:35 51°23.372 2°59.941 11.1 222 1.4 102570 89
2003-02-11 09:36 51°23.317 3°0.135 15.2 225 1.5 102570 89
2003-02-11 09:37 51°23.233 3°0.453 15.7 223 1.5 102550 89
2003-02-11 09:38 51°23.149 3°0.796 14.5 223 1.5 102560 89
2003-02-11 09:39 51°23.07 3°1.136 14.2 219 1.4 102560 89
2003-02-11 09:40 51°23.002 3°1.466 14.9 222 1.4 102570 89
2003-02-11 09:41 51°22.926 3°1.828 14.1 221 1.5 102570 89
2003-02-11 09:42 51°22.855 3°2.163 14 223 1.5 102570 89
2003-02-11 09:43 51°22.78 3°2.516 14.5 224 1.4 102570 88
2003-02-11 09:44 51°22.706 3°2.859 14.5 223 1.5 102570 89
2003-02-11 09:45 51°22.632 3°3.195 14.2 222 1.5 102580 89
2003-02-11 09:46 51°22.56 3°3.54 15 221 1.5 102570 89
2003-02-11 09:47 51°22.499 3°3.889 14.5 222 1.5 102570 88
2003-02-11 09:48 51°22.432 3°4.244 13.7 220 1.5 102570 89
2003-02-11 09:49 51°22.373 3°4.587 13.5 218 1.4 102590 89
2003-02-11 09:50 51°22.313 3°4.936 13.9 218 1.4 102580 89
2003-02-11 09:51 51°22.249 3°5.287 14.4 221 1.4 102580 89
2003-02-11 09:52 51°22.193 3°5.629 14.5 217 1.4 102590 89
2003-02-11 09:53 51°22.161 3°5.992 14.2 217 1.3 102580 89
2003-02-11 09:54 51°22.129 3°6.349 14.3 217 1.3 102590 89
2003-02-11 09:55 51°22.1 3°6.696 13.5 214 1.3 102590 89
2003-02-11 09:56 51°22.113 3°7.064 13.2 203 1.3 102590 89
2003-02-11 09:57 51°22.164 3°7.418 11.7 204 1.3 102590 89
2003-02-11 09:58 51°22.229 3°7.756 11.8 199 1.3 102580 89
2003-02-11 09:59 51°22.297 3°8.106 11.1 201 1.2 102580 89
2003-02-11 10:00 51°22.377 3°8.442 9.9 200 1.3 102590 89
2003-02-11 10:01 51°22.48 3°8.766 10.2 198 1.3 102590 89
2003-02-11 10:02 51°22.595 3°9.013 6.6 183 1.4 102600 89
2003-02-11 10:03 51°22.712 3°9.192 7.3 181 1.4 102610 89
2003-02-11 10:04 51°22.785 3°9.37 8.2 203 1.4 102610 89
2003-02-11 10:05 51°22.767 3°9.462 8.5 231 1.5 102610 89
2003-02-11 10:06 51°22.738 3°9.487 7.4 274 1.6 102610 89
2003-02-11 10:07 51°22.712 3°9.469 7.6 298 1.6 102620 89
2003-02-11 10:08 51°22.704 3°9.446 7.8 299 1.7 102620 89
2003-02-11 10:09 51°22.693 3°9.418 7.5 292 1.7 102620 89
2003-02-11 10:10 51°22.683 3°9.392 6.6 290 1.8 102620 89
2003-02-11 10:11 51°22.678 3°9.369 6.9 294 1.8 102630 89
2003-02-11 10:12 51°22.677 3°9.349 6.1 290 1.8 102620 89
2003-02-11 10:13 51°22.677 3°9.33 6.6 295 2 102620 89
2003-02-11 10:14 51°22.68 3°9.312 6.9 298 2 102620 89
2003-02-11 10:15 51°22.685 3°9.293 6.2 295 2 102620 88
2003-02-11 10:16 51°22.69 3°9.276 6.6 295 2.1 102620 88
2003-02-11 10:17 51°22.696 3°9.259 5.1 308 2.1 102620 88
2003-02-11 10:18 51°22.703 3°9.24 6.2 301 2.1 102620 88
2003-02-11 10:19 51°22.705 3°9.218 5.1 285 2.2 102630 88
2003-02-11 10:20 51°22.702 3°9.197 6.3 284 2.3 102620 88
2003-02-11 10:21 51°22.696 3°9.179 6.2 274 2.3 102620 88
2003-02-11 10:22 51°22.687 3°9.165 5.9 261 2.3 102620 87
2003-02-11 10:23 51°22.679 3°9.153 5.5 250 2.3 102620 87
2003-02-11 10:24 51°22.67 3°9.148 5.5 246 2.3 102620 87
2003-02-11 10:25 51°22.662 3°9.148 6.1 225 2.3 102620 87
2003-02-11 10:26 51°22.651 3°9.178 6.4 210 2.3 102620 86
2003-02-11 10:27 51°22.649 3°9.208 5.9 203 2.3 102620 86
2003-02-11 10:28 51°22.652 3°9.229 5.1 189 2.1 102620 86
2003-02-11 10:29 51°22.659 3°9.246 4.9 182 2.1 102620 86
2003-02-11 10:30 51°22.671 3°9.262 6.1 174 2.1 102620 86
2003-02-11 10:31 51°22.683 3°9.276 5.6 175 2.1 102630 87
2003-02-11 10:32 51°22.695 3°9.289 5.6 170 2.1 102630 86
2003-02-11 10:33 51°22.71 3°9.298 5.2 163 2.1 102620 87
2003-02-11 10:34 51°22.725 3°9.305 5 159 2.1 102630 87
2003-02-11 10:35 51°22.74 3°9.31 5 156 2.1 102630 87
2003-02-11 10:36 51°22.755 3°9.312 5.1 155 2.1 102630 87
2003-02-11 10:37 51°22.769 3°9.312 5 158 2.2 102630 87
2003-02-11 10:38 51°22.782 3°9.315 5.2 169 2.2 102630 87
2003-02-11 10:39 51°22.797 3°9.323 5.7 177 2.2 102620 87
2003-02-11 10:40 51°22.807 3°9.342 5 191 2.2 102620 87
2003-02-11 10:41 51°22.815 3°9.368 6 203 2.2 102610 87
2003-02-11 10:42 51°22.814 3°9.392 5.9 221 2.3 102620 87
2003-02-11 10:43 51°22.804 3°9.409 6.2 241 2.3 102620 87
2003-02-11 10:44 51°22.785 3°9.411 6.2 266 2.4 102620 87
2003-02-11 10:45 51°22.763 3°9.389 6.4 295 2.5 102620 87
2003-02-11 10:46 51°22.746 3°9.342 4.3 300 2.6 102630 87
2003-02-11 10:47 51°22.735 3°9.282 0.7 324 2.7 102630 87
2003-02-11 10:48 51°22.733 3°9.209 2.9 346 2.7 102630 86
2003-02-11 10:49 51°22.745 3°9.135 3.9 29 2.8 102630 86
2003-02-11 10:50 51°22.777 3°9.032 2.1 9 2.7 102620 86
2003-02-11 10:51 51°22.837 3°8.852 1.5 294 2.8 102620 86
2003-02-11 10:52 51°22.947 3°8.539 3.5 253 2.9 102620 86
2003-02-11 10:53 51°23.063 3°8.207 2.8 267 3 102620 85
2003-02-11 10:54 51°23.153 3°7.859 4.5 282 3.1 102620 85
2003-02-11 10:55 51°23.211 3°7.491 5.2 283 3.2 102620 85
2003-02-11 10:56 51°23.273 3°7.134 4.5 276 3.2 102620 84
2003-02-11 10:57 51°23.336 3°6.77 4.1 291 3.3 102620 84
2003-02-11 10:58 51°23.4 3°6.397 4.6 284 3.3 102620 84
2003-02-11 10:59 51°23.463 3°6.039 4.9 289 3.3 102620 84
2003-02-11 11:00 51°23.56 3°5.688 3.1 268 3.3 102620 83
2003-02-11 11:01 51°23.683 3°5.367 1.1 266 3.3 102620 83
2003-02-11 11:02 51°23.886 3°5.191 4.1 175 3.3 102620 83
2003-02-11 11:03 51°24.122 3°5.136 5.5 201 3.2 102610 83
2003-02-11 11:04 51°24.36 3°5.108 4.1 189 3 102610 83
2003-02-11 11:05 51°24.576 3°5.087 3.7 158 2.9 102610 84
2003-02-11 11:06 51°24.76 3°5.07 2.9 171 2.9 102610 84
2003-02-11 11:07 51°24.94 3°5.056 3.8 156 2.9 102620 84
2003-02-11 11:08 51°25.121 3°5.074 3.9 165 2.9 102610 85
2003-02-11 11:09 51°25.297 3°5.12 5.6 176 2.9 102610 85
2003-02-11 11:10 51°25.46 3°5.225 6.3 165 2.9 102610 85
2003-02-11 11:11 51°25.621 3°5.336 5.8 165 2.9 102610 85
2003-02-11 11:12 51°25.768 3°5.485 6.4 177 2.9 102600 85
2003-02-11 11:13 51°25.911 3°5.636 6.9 174 2.9 102600 85
2003-02-11 11:14 51°26.06 3°5.79 6.6 177 2.9 102610 85
2003-02-11 11:15 51°26.207 3°5.942 6.7 177 2.9 102610 85
2003-02-11 11:16 51°26.353 3°6.094 6.5 177 2.8 102610 85
2003-02-11 11:17 51°26.489 3°6.255 6.5 181 2.8 102610 86
2003-02-11 11:18 51°26.62 3°6.451 6.7 184 2.8 102610 86
2003-02-11 11:19 51°26.746 3°6.634 6.7 181 2.7 102610 86
2003-02-11 11:20 51°26.876 3°6.824 5.9 184 2.7 102610 86
2003-02-11 11:21 51°27.006 3°7.011 6.3 180 2.7 102610 86
2003-02-11 11:22 51°27.132 3°7.193 7 176 2.7 102610 86
2003-02-11 11:23 51°27.263 3°7.381 6.4 179 2.7 102610 86
2003-02-11 11:24 51°27.392 3°7.566 6.2 181 2.8 102610 86
2003-02-11 11:25 51°27.515 3°7.745 5.7 185 2.8 102610 86
2003-02-11 11:26 51°27.64 3°7.945 5.3 183 2.8 102600 86
2003-02-11 11:27 51°27.762 3°8.135 6.3 177 2.8 102600 86
2003-02-11 11:28 51°27.855 3°8.281 5.5 164 2.8 102610 87
2003-02-11 11:29 51°27.932 3°8.398 6 161 2.9 102610 87
2003-02-11 11:30 51°28.005 3°8.505 5.7 166 2.9 102610 86
2003-02-11 11:31 51°28.092 3°8.636 5.7 172 2.8 102610 86
2003-02-11 11:32 51°28.182 3°8.809 6.9 197 2.9 102600 86
2003-02-11 11:33 51°28.171 3°8.99 7.6 205 2.9 102600 86
2003-02-11 11:34 51°28.18 3°9.107 6.3 166 3 102600 86
2003-02-11 11:35 51°28.205 3°9.136 3.7 119 2.9 102610 86
2003-02-11 11:36 51°28.235 3°9.141 4.3 102 3 102610 86
2003-02-11 11:37 51°28.272 3°9.156 4.5 153 3.1 102620 86
2003-02-11 11:38 51°28.299 3°9.23 6.4 204 3.1 102610 86
2003-02-11 11:39 51°28.274 3°9.303 6.8 241 3.1 102610 86
2003-02-11 11:40 51°28.257 3°9.308 5.8 263 3.1 102610 85
2003-02-11 11:41 51°28.247 3°9.296 5.8 352 3.2 102610 85
2003-02-11 11:42 51°28.24 3°9.278 5.7 275 3.2 102610 85
2003-02-11 11:43 51°28.236 3°9.259 6.1 342 3.3 102600 85
2003-02-11 11:44 51°28.231 3°9.242 5.7 269 3.3 102600 84
2003-02-11 11:45 51°28.228 3°9.225 6 265 3.4 102600 84
2003-02-11 11:46 51°28.224 3°9.21 5.6 262 3.4 102610 84
2003-02-11 11:47 51°28.222 3°9.197 5.5 257 3.4 102600 84
2003-02-11 11:48 51°28.219 3°9.184 4.9 253 3.4 102600 83
2003-02-11 11:49 51°28.215 3°9.175 5.2 244 3.5 102610 83
2003-02-11 11:50 51°28.21 3°9.17 5.6 242 3.5 102610 83
2003-02-11 11:51 51°28.203 3°9.169 5.3 244 3.5 102610 83
2003-02-11 11:52 51°28.193 3°9.171 5.6 243 3.6 102610 83
2003-02-11 11:53 51°28.181 3°9.167 5.5 263 3.6 102600 83
2003-02-11 11:54 51°28.167 3°9.152 5.4 266 3.7 102600 82
2003-02-11 11:55 51°28.152 3°9.132 5.4 268 3.7 102600 82
2003-02-11 11:56 51°28.137 3°9.114 5.5 263 3.7 102600 82
2003-02-11 11:57 51°28.121 3°9.1 5.3 262 3.8 102600 82
2003-02-11 11:58 51°28.105 3°9.091 5.8 249 3.8 102600 82
2003-02-11 11:59 51°28.095 3°9.084 5.7 247 3.7 102600 82
2003-02-11 12:00 51°28.089 3°9.078 4.9 245 3.8 102600 82
2003-02-11 12:01 51°28.085 3°9.069 5 251 3.8 102610 82
2003-02-11 12:02 51°28.081 3°9.057 5.2 263 3.8 102600 82
2003-02-11 12:03 51°28.076 3°9.039 5.5 280 3.8 102600 81
2003-02-11 12:04 51°28.068 3°9.011 5.6 294 3.8 102610 81
2003-02-11 12:05 51°28.061 3°8.966 3.7 303 3.8 102610 81
2003-02-11 12:06 51°28.062 3°8.903 1.9 341 3.8 102610 81
2003-02-11 12:07 51°28.084 3°8.841 3 17 3.7 102610 81
2003-02-11 12:08 51°28.124 3°8.798 2.9 58 3.8 102610 81
2003-02-11 12:09 51°28.176 3°8.774 3 92 3.9 102610 81
2003-02-11 12:10 51°28.233 3°8.769 3.3 104 3.8 102610 81
2003-02-11 12:11 51°28.29 3°8.786 3.6 123 3.8 102610 81
2003-02-11 12:12 51°28.337 3°8.82 3.4 135 3.8 102610 81
2003-02-11 12:13 51°28.373 3°8.859 4 145 3.8 102610 82
2003-02-11 12:14 51°28.402 3°8.9 4 137 3.7 102610 82
2003-02-11 12:15 51°28.461 3°8.926 1.9 123 3.8 102610 82
2003-02-11 12:16 51°28.556 3°8.755 4.6 273 3.8 102610 82
2003-02-11 12:17 51°28.558 3°8.424 6.4 269 3.9 102600 82
2003-02-11 12:18 51°28.555 3°8.06 7.2 264 4 102600 82
2003-02-11 12:19 51°28.554 3°7.671 7 266 4 102590 82
2003-02-11 12:20 51°28.553 3°7.309 7.2 268 4 102590 82
2003-02-11 12:21 51°28.552 3°6.928 7.2 269 4 102600 82
2003-02-11 12:22 51°28.55 3°6.558 6.9 265 4 102590 82
2003-02-11 12:23 51°28.548 3°6.175 7 262 4 102590 82
2003-02-11 12:24 51°28.548 3°5.793 7.1 262 4 102600 82
2003-02-11 12:25 51°28.545 3°5.431 7.8 259 4.1 102590 82
2003-02-11 12:26 51°28.542 3°5.046 8.3 266 4 102590 82
2003-02-11 12:27 51°28.54 3°4.678 8.2 264 4 102580 82
2003-02-11 12:28 51°28.528 3°4.368 7.4 268 4.1 102590 81
2003-02-11 12:29 51°28.486 3°4.149 6.5 273 4.1 102590 81
2003-02-11 12:30 51°28.449 3°3.949 4.8 291 4.1 102590 80
2003-02-11 12:31 51°28.517 3°3.795 1.7 309 4.1 102600 80
2003-02-11 12:32 51°28.616 3°3.663 1.5 12 4.1 102600 80
2003-02-11 12:33 51°28.697 3°3.674 2.7 134 4.1 102600 80
2003-02-11 12:34 51°28.726 3°3.758 3.9 149 4.1 102600 79
2003-02-11 12:35 51°28.737 3°3.794 4 146 4 102600 79
2003-02-11 12:36 51°28.748 3°3.818 3.4 153 4 102600 80
2003-02-11 12:37 51°28.758 3°3.84 3.5 152 4 102600 80
2003-02-11 12:38 51°28.765 3°3.863 3.6 175 4 102600 80
2003-02-11 12:39 51°28.769 3°3.886 3.2 189 4 102600 80
2003-02-11 12:40 51°28.769 3°3.907 3.9 196 4 102600 80
2003-02-11 12:41 51°28.766 3°3.926 3.7 211 3.9 102600 80
2003-02-11 12:42 51°28.761 3°3.941 4.2 219 4 102600 80
2003-02-11 12:43 51°28.754 3°3.951 3.8 233 4 102600 80
2003-02-11 12:44 51°28.744 3°3.955 4.8 250 4.1 102600 80
2003-02-11 12:45 51°28.735 3°3.951 4.4 261 4.2 102590 80
2003-02-11 12:46 51°28.727 3°3.937 4.4 280 4.3 102600 79
2003-02-11 12:47 51°28.721 3°3.915 4.6 295 4.3 102600 79
2003-02-11 12:48 51°28.718 3°3.891 4.5 296 4.3 102600 79
2003-02-11 12:49 51°28.715 3°3.866 4.5 302 4.3 102600 78
2003-02-11 12:50 51°28.713 3°3.844 4.1 298 4.4 102600 78
2003-02-11 12:51 51°28.711 3°3.825 3.9 300 4.4 102600 78
2003-02-11 12:52 51°28.71 3°3.806 4.1 300 4.4 102600 78
2003-02-11 12:53 51°28.71 3°3.786 3.5 297 4.4 102590 78
2003-02-11 12:54 51°28.71 3°3.771 3.9 301 4.4 102590 78
2003-02-11 12:55 51°28.709 3°3.756 4.4 298 4.4 102590 78
2003-02-11 12:56 51°28.709 3°3.743 3.6 298 4.4 102590 78
2003-02-11 12:57 51°28.708 3°3.73 3.9 305 4.4 102590 78
2003-02-11 12:58 51°28.707 3°3.717 4.1 301 4.5 102600 78
2003-02-11 12:59 51°28.706 3°3.703 4.1 300 4.5 102600 78
2003-02-11 13:00 51°28.706 3°3.69 3.1 303 4.5 102600 78
2003-02-11 13:01 51°28.706 3°3.676 3.4 298 4.5 102600 78
2003-02-11 13:02 51°28.706 3°3.663 3.9 299 4.4 102590 78
2003-02-11 13:03 51°28.705 3°3.651 3.7 304 4.4 102590 78
2003-02-11 13:04 51°28.704 3°3.639 2 307 4.4 102590 79
2003-02-11 13:05 51°28.704 3°3.626 0.9 321 4.4 102590 79
2003-02-11 13:06 51°28.704 3°3.611 0.1 339 4.4 102590 79
2003-02-11 13:07 51°28.705 3°3.595 0.2 339 4.3 102590 79
2003-02-11 13:08 51°28.706 3°3.579 1.4 342 4.3 102590 79
2003-02-11 13:09 51°28.709 3°3.56 3.2 2 4.3 102590 79
2003-02-11 13:10 51°28.716 3°3.529 2.5 7 4.3 102590 79
2003-02-11 13:11 51°28.734 3°3.482 2.1 27 4.3 102590 79
2003-02-11 13:12 51°28.764 3°3.432 1.4 35 4.4 102590 79
2003-02-11 13:13 51°28.801 3°3.38 1.2 43 4.5 102580 80
2003-02-11 13:14 51°28.842 3°3.34 1.8 72 4.6 102590 79
2003-02-11 13:15 51°28.89 3°3.317 2.2 107 4.6 102590 79
2003-02-11 13:17 51°28.946 3°3.318 2.5 123 4.6 102590 79
2003-02-11 13:18 51°28.995 3°3.344 3 152 4.5 102590 79
2003-02-11 13:19 51°29.037 3°3.388 3.1 157 4.5 102590 79
2003-02-11 13:20 51°29.065 3°3.437 3.8 167 4.4 102590 79
2003-02-11 13:21 51°29.084 3°3.49 3.5 178 4.3 102590 79
2003-02-11 13:22 51°29.095 3°3.537 3.3 182 4.3 102590 80
2003-02-11 13:23 51°29.101 3°3.578 3.1 184 4.2 102590 80
2003-02-11 13:24 51°29.104 3°3.61 3.5 192 4.2 102590 80
2003-02-11 13:25 51°29.105 3°3.639 3.7 196 4.2 102590 80
2003-02-11 13:26 51°29.103 3°3.66 3.5 198 4.2 102590 80
2003-02-11 13:27 51°29.097 3°3.688 4.3 215 4.2 102580 80
2003-02-11 13:28 51°29.054 3°3.748 5.8 248 4.3 102580 81
2003-02-11 13:29 51°28.983 3°3.746 5.3 274 4.4 102580 81
2003-02-11 13:30 51°28.932 3°3.704 4.5 286 4.5 102580 81
2003-02-11 13:31 51°28.881 3°3.628 4.2 291 4.5 102580 80
2003-02-11 13:32 51°28.836 3°3.548 4.3 289 4.6 102580 80
2003-02-11 13:33 51°28.79 3°3.466 4 289 4.6 102580 80
2003-02-11 13:34 51°28.745 3°3.389 4.1 289 4.6 102580 80
2003-02-11 13:35 51°28.698 3°3.314 4.1 286 4.6 102580 80
2003-02-11 13:36 51°28.649 3°3.24 4.3 287 4.6 102580 80
2003-02-11 13:37 51°28.601 3°3.17 4 288 4.6 102580 80
2003-02-11 13:38 51°28.55 3°3.099 4.1 288 4.7 102580 80
2003-02-11 13:39 51°28.501 3°3.031 4.2 287 4.6 102580 80
2003-02-11 13:40 51°28.449 3°2.963 4.3 287 4.7 102580 80
2003-02-11 13:41 51°28.392 3°2.896 4.3 284 4.7 102580 80
2003-02-11 13:42 51°28.337 3°2.839 4.3 282 4.7 102580 80
2003-02-11 13:43 51°28.282 3°2.785 4.3 281 4.7 102580 80
2003-02-11 13:44 51°28.22 3°2.729 4.4 279 4.7 102580 80
2003-02-11 13:45 51°28.161 3°2.676 4.3 281 4.8 102580 80
2003-02-11 13:46 51°28.103 3°2.621 4.3 280 4.8 102580 80
2003-02-11 13:47 51°28.041 3°2.561 4.4 279 4.8 102580 80
2003-02-11 13:48 51°27.983 3°2.507 4.4 281 4.8 102580 80
2003-02-11 13:49 51°27.925 3°2.452 4.2 281 4.8 102580 80
2003-02-11 13:50 51°27.867 3°2.398 4.3 279 4.8 102580 80
2003-02-11 13:51 51°27.811 3°2.335 4.1 288 4.8 102580 80
2003-02-11 13:52 51°27.763 3°2.253 3.7 300 4.8 102580 80
2003-02-11 13:53 51°27.729 3°2.153 3.4 299 4.7 102580 80
2003-02-11 13:54 51°27.698 3°2.049 2.6 299 4.7 102580 80
2003-02-11 13:55 51°27.663 3°1.941 2.9 300 4.7 102580 80
2003-02-11 13:56 51°27.634 3°1.842 0.5 307 4.7 102580 80
2003-02-11 13:57 51°27.624 3°1.745 1.8 359 4.6 102580 80
2003-02-11 13:58 51°27.627 3°1.668 2.2 17 4.6 102580 81
2003-02-11 13:59 51°27.633 3°1.607 2.2 26 4.6 102580 81
2003-02-11 14:00 51°27.64 3°1.555 2.2 27 4.5 102590 81
2003-02-11 14:01 51°27.647 3°1.508 2.3 29 4.6 102580 81
2003-02-11 14:02 51°27.657 3°1.461 1.3 47 4.6 102590 81
2003-02-11 14:03 51°27.693 3°1.431 2.7 152 4.7 102580 81
2003-02-11 14:04 51°27.72 3°1.494 5.2 219 4.6 102580 81
2003-02-11 14:05 51°27.611 3°1.538 8.4 248 4.6 102580 81
2003-02-11 14:06 51°27.381 3°1.483 9.9 249 4.6 102570 82
2003-02-11 14:07 51°27.147 3°1.425 9.9 247 4.6 102570 82
2003-02-11 14:08 51°26.899 3°1.367 10.3 245 4.7 102570 82
2003-02-11 14:09 51°26.664 3°1.311 9.4 246 4.7 102570 82
2003-02-11 14:10 51°26.434 3°1.258 9.3 245 4.7 102570 82
2003-02-11 14:11 51°26.2 3°1.204 10 246 4.7 102570 82
2003-02-11 14:12 51°25.959 3°1.151 10.4 246 4.7 102580 82
2003-02-11 14:13 51°25.722 3°1.117 9.7 245 4.7 102570 82
2003-02-11 14:14 51°25.487 3°1.086 10.1 245 4.7 102570 82
2003-02-11 14:15 51°25.252 3°1.056 9.3 243 4.7 102570 82
2003-02-11 14:16 51°25.024 3°1.026 9.4 243 4.7 102580 82
2003-02-11 14:17 51°24.782 3°0.992 9.4 243 4.7 102580 82
2003-02-11 14:18 51°24.551 3°0.957 9.8 241 4.7 102580 82
2003-02-11 14:19 51°24.315 3°0.921 9 242 4.8 102580 82
2003-02-11 14:20 51°24.083 3°0.885 8.6 240 4.8 102580 82
2003-02-11 14:21 51°23.85 3°0.85 9.9 239 4.8 102580 82
2003-02-11 14:22 51°23.602 3°0.808 9.6 236 4.8 102580 82
2003-02-11 14:23 51°23.367 3°0.769 10 237 4.8 102580 82
2003-02-11 14:24 51°23.134 3°0.73 10.1 237 4.8 102570 82
2003-02-11 14:25 51°22.899 3°0.691 9.4 237 4.8 102570 82
2003-02-11 14:26 51°22.664 3°0.647 8.9 239 4.9 102580 82
2003-02-11 14:27 51°22.428 3°0.58 9.7 237 4.9 102570 82
2003-02-11 14:28 51°22.201 3°0.511 10 238 4.8 102570 82
2003-02-11 14:29 51°21.976 3°0.415 10.3 238 4.8 102570 82
2003-02-11 14:30 51°21.732 3°0.307 9.7 238 4.8 102580 81
2003-02-11 14:31 51°21.502 3°0.204 10.2 239 4.9 102570 81
2003-02-11 14:32 51°21.279 3°0.102 8.6 240 4.9 102580 80
2003-02-11 14:33 51°21.135 3°0.007 5.5 255 5 102580 80
2003-02-11 14:34 51°21.067 2°59.827 4.6 263 5 102580 80
2003-02-11 14:35 51°21.069 2°59.636 2.5 276 5.1 102590 80
2003-02-11 14:36 51°21.098 2°59.513 1 356 5.1 102580 79
2003-02-11 14:37 51°21.109 2°59.465 1.5 21 5.1 102580 79
2003-02-11 14:38 51°21.112 2°59.434 1.9 51 5.2 102580 79
2003-02-11 14:39 51°21.129 2°59.4 0.2 62 5.2 102590 79
2003-02-11 14:40 51°21.177 2°59.193 6.5 251 5.2 102580 79
2003-02-11 14:41 51°21.052 2°58.879 9.2 247 5.2 102580 79
2003-02-11 14:42 51°20.914 2°58.564 9 248 5.2 102580 79
2003-02-11 14:43 51°20.774 2°58.24 9.5 248 5.1 102580 79
2003-02-11 14:44 51°20.633 2°57.916 8.9 250 5.1 102580 79
2003-02-11 14:45 51°20.489 2°57.598 9.1 251 5.1 102580 79
2003-02-11 14:46 51°20.361 2°57.284 9.5 252 5.1 102580 79
2003-02-11 14:47 51°20.221 2°56.936 9 254 5.1 102580 79
2003-02-11 14:48 51°20.087 2°56.597 9.2 254 5.1 102580 79
2003-02-11 14:49 51°19.957 2°56.27 9.2 254 5.1 102580 79
2003-02-11 14:50 51°19.828 2°55.959 9.5 255 5.1 102580 79
2003-02-11 14:51 51°19.68 2°55.614 9 254 5.1 102580 79
2003-02-11 14:52 51°19.543 2°55.297 9 254 5.2 102580 79
2003-02-11 14:53 51°19.409 2°54.992 8.3 253 5.2 102580 79
2003-02-11 14:54 51°19.258 2°54.65 8.8 253 5.2 102580 80
2003-02-11 14:55 51°19.116 2°54.328 9 256 5.2 102580 80
2003-02-11 14:56 51°18.97 2°54.012 8.7 255 5.2 102580 80
2003-02-11 14:57 51°18.821 2°53.699 8.7 253 5.1 102580 80
2003-02-11 14:58 51°18.68 2°53.407 8.6 250 5.2 102580 80
2003-02-11 14:59 51°18.506 2°53.09 9.3 252 5.1 102580 80
2003-02-11 15:00 51°18.329 2°52.818 9.5 249 5.1 102580 80
2003-02-11 15:01 51°18.123 2°52.606 9.9 246 5.1 102570 80
2003-02-11 15:02 51°17.881 2°52.47 10.7 244 5.1 102570 80
2003-02-11 15:03 51°17.631 2°52.411 10.8 241 5.2 102580 80
2003-02-11 15:04 51°17.388 2°52.404 10.9 238 5.1 102570 80
2003-02-11 15:05 51°17.156 2°52.465 10.9 237 5.2 102580 79
2003-02-11 15:06 51°16.903 2°52.583 11.6 234 5.1 102590 79
2003-02-11 15:07 51°16.662 2°52.73 11.4 234 5.2 102580 79
2003-02-11 15:09 51°16.409 2°52.893 11.3 232 5.2 102570 78
2003-02-11 15:10 51°16.2 2°53.027 11.7 233 5.2 102570 77
2003-02-11 15:11 51°15.978 2°53.169 11.1 232 5.3 102570 76
2003-02-11 15:12 51°15.761 2°53.307 11.6 235 5.3 102570 75
2003-02-11 15:13 51°15.544 2°53.452 11.2 228 5.4 102570 75
2003-02-11 15:14 51°15.34 2°53.606 10.6 229 5.4 102570 74
2003-02-11 15:15 51°15.17 2°53.835 11.5 224 5.5 102570 74
2003-02-11 15:16 51°15.02 2°54.1 11.7 225 5.5 102570 73
2003-02-11 15:17 51°14.884 2°54.332 8.4 228 5.6 102570 73
2003-02-11 15:18 51°14.772 2°54.498 7.7 228 5.6 102580 73
2003-02-11 15:19 51°14.683 2°54.637 7 225 5.6 102590 74
2003-02-11 15:20 51°14.579 2°54.798 9.5 227 5.6 102590 74
2003-02-11 15:21 51°14.443 2°54.993 9.4 229 5.6 102590 73
2003-02-11 15:22 51°14.306 2°55.199 9.8 232 5.6 102580 73